sat.trackr.live / text

‹ back to catalog

STARLINK-31144

NORAD 58682 · 2023-211R

PAYLOAD ACTIVE UNKNOWN

§ Identity

Operator
Country
US
Launch date
2023-12-29
Launch site
AFETR
Launch vehicle
Mass (kg)
RCS (m²)

Purposes: comms

External: N2YO · Heavens-Above · Gunter

§ Orbital elements

Epoch: 2026-09-19T18:48:41.163264Z

Period
94.27 min
Inclination
43.0051°
Eccentricity
0.0001409
Mean motion
15.27575354 rev/d
Perigee alt
482.1 km
Apogee alt
484.0 km
Semi-major
6,861.2 km
B*
1.3163e-5
RAAN
68.7152°
Arg perigee
262.8734°
Mean anomaly
97.1957°
Rev number
15,215

§ Raw data

STARLINK-311441 58682U 23211R   26262.78380976  .00000100  00000+0  13163-4 0  99922 58682  43.0051  68.7152 0001409 262.8734  97.1957 15.27575354152155

JSON: /api/v1/satellites/58682 · /tle

For live sub-satellite position, see the globe view (requires WebGL).

§ Visibility from observer

Set your observer location to see the next 7 days of passes ≥ 10°. The values pass through the URL so the page stays shareable.

No JS? Fill the form by hand. The geolocation button needs JavaScript.